Weather History for Alma, MI

Change the Weather History Date:

Monday, January 27, 2014

  Actual Average Record
Temperature  
Mean Temperature 6 °F -  
Max Temperature 15 °F 28 °F 53 °F (2002)
Min Temperature -4 °F 12 °F -13 °F (1961)
Degree Days  
Heating Degree Days 60    
Moisture  
Dew Point -4 °F    
Average Humidity 67    
Maximum Humidity 84    
Minimum Humidity 50    
Precipitation  
Precipitation 0.00 in - - ()
Sea Level Pressure  
Sea Level Pressure 29.95 in    
Wind  
Wind Speed 15 mph (West)    
Max Wind Speed 22 mph    
Max Gust Speed 33 mph    
Visibility 8 miles    
Events Snow    
Averages and records for this station are not official NWS values.
T = Trace of Precipitation, MM = Missing Value Source: NWS Daily Summary

Daily Weather History Graph

Daily Weather History Graph

Search for Another Location

Airport:

Trip Planner

Search our weather history database for the weather conditions in past years. The results will help you decide how hot, cold, wet, or windy it might be!

Date:

Astronomy

Jan. 27, 2014 Rise Set
Actual Time 7:59 AM EST 5:44 PM EST
Civil Twilight 7:28 AM EST 6:14 PM EST
Nautical Twilight 6:54 AM EST 6:49 PM EST
Astronomical Twilight 6:20 AM EST 7:22 PM EST
Moon 4:41 AM EST (1/27) 2:27 PM EST (1/27)
Length of Visible Light 10h 45m
Length of Day
9h 44m
Waning Crescent, 15% of the Moon is Illuminated
Jan 27
Waning Crescent
Jan 30
New
Feb 6
First Quarter
Feb 14
Full
Feb 22
Last Quarter

Hourly Weather History & Observations

Time (EST) Temp. Windchill Dew Point Humidity Pressure Visibility Wind Dir Wind Speed Gust Speed Precip Events Conditions
12:12 AM 15.8 °F -0.6 °F 6.6 °F 67% 29.44 in 7.0 mi West 18.4 mph 25.3 mph N/A   Mostly Cloudy
12:32 AM 15.1 °F -0.6 °F 7.3 °F 71% 29.46 in 7.0 mi WNW 16.1 mph 23.0 mph N/A   Overcast
12:52 AM 14.0 °F -2.0 °F 5.5 °F 69% 29.48 in 7.0 mi WNW 16.1 mph 20.7 mph N/A   Mostly Cloudy
1:09 AM 13.1 °F -4.6 °F 4.1 °F 67% 29.49 in 5.0 mi WNW 19.6 mph 26.5 mph N/A   Haze
1:29 AM 12.2 °F -3.7 °F 3.7 °F 69% 29.51 in 7.0 mi West 15.0 mph 19.6 mph N/A   Clear
1:49 AM 12.0 °F -4.0 °F 3.9 °F 70% 29.53 in 7.0 mi West 15.0 mph 26.5 mph N/A   Clear
2:10 AM 11.3 °F -5.5 °F 3.2 °F 70% 29.55 in 10.0 mi West 16.1 mph 21.9 mph N/A   Clear
2:30 AM 11.1 °F -6.2 °F 3.7 °F 72% 29.56 in 7.0 mi West 17.3 mph 21.9 mph N/A   Mostly Cloudy
2:50 AM 10.8 °F -7.2 °F 4.3 °F 75% 29.58 in 7.0 mi West 18.4 mph 25.3 mph N/A   Scattered Clouds
3:10 AM 10.8 °F -6.7 °F 5.0 °F 78% 29.60 in 7.0 mi West 17.3 mph 23.0 mph N/A   Mostly Cloudy
3:30 AM 10.6 °F -6.9 °F 4.5 °F 76% 29.62 in 7.0 mi WNW 17.3 mph 23.0 mph N/A   Scattered Clouds
3:52 AM 10.8 °F -8.1 °F 2.8 °F 70% 29.65 in 5.0 mi WNW 20.7 mph 28.8 mph N/A   Haze
4:12 AM 10.4 °F -6.6 °F 4.1 °F 76% 29.66 in 3.0 mi WNW 16.1 mph 29.9 mph N/A   Haze
4:33 AM 9.5 °F -8.8 °F 1.6 °F 70% 29.69 in 4.0 mi WNW 18.4 mph 33.4 mph N/A   Haze
4:53 AM 8.8 °F -9.3 °F -0.4 °F 66% 29.72 in 2.5 mi WNW 17.3 mph 33.4 mph N/A   Haze
5:08 AM 8.1 °F -10.7 °F -1.5 °F 65% 29.74 in 7.0 mi WNW 18.4 mph 26.5 mph N/A   Clear
5:28 AM 7.7 °F -10.7 °F -1.8 °F 65% 29.76 in 7.0 mi WNW 17.3 mph 27.6 mph N/A   Clear
5:48 AM 7.3 °F -11.1 °F -3.1 °F 62% 29.79 in 5.0 mi WNW 17.3 mph 28.8 mph N/A   Haze
6:08 AM 6.8 °F -13.8 °F -4.0 °F 61% 29.81 in 7.0 mi West 21.9 mph 26.5 mph N/A   Clear
6:28 AM 6.4 °F -11.1 °F -2.7 °F 66% 29.83 in 10.0 mi West 15.0 mph - N/A   Clear
6:48 AM 5.9 °F -11.8 °F -2.9 °F 67% 29.85 in 10.0 mi West 15.0 mph 21.9 mph N/A   Clear
7:11 AM 5.7 °F -10.7 °F -2.6 °F 69% 29.86 in 10.0 mi WNW 12.7 mph 16.1 mph N/A   Mostly Cloudy
7:31 AM 5.9 °F -10.5 °F 0.3 °F 78% 29.88 in 2.5 mi WNW 12.7 mph 19.6 mph N/A Snow Light Snow
7:51 AM 5.0 °F -10.0 °F -0.9 °F 76% 29.89 in 7.0 mi West 10.4 mph 16.1 mph N/A   Mostly Cloudy
8:11 AM 4.1 °F -12.7 °F -2.9 °F 73% 29.91 in 10.0 mi West 12.7 mph - N/A   Scattered Clouds
8:31 AM 4.3 °F -10.9 °F -3.1 °F 71% 29.92 in 10.0 mi West 10.4 mph - N/A   Scattered Clouds
8:51 AM 4.5 °F -9.8 °F -4.0 °F 68% 29.94 in 10.0 mi West 9.2 mph - N/A   Scattered Clouds
9:11 AM 5.2 °F -8.9 °F -4.0 °F 66% 29.95 in 10.0 mi West 9.2 mph - N/A   Clear
9:26 AM 5.5 °F -10.9 °F -4.0 °F 65% 29.96 in 10.0 mi West 12.7 mph - N/A   Clear
9:49 AM 5.7 °F -11.4 °F -4.4 °F 63% 29.97 in 10.0 mi WNW 13.8 mph 20.7 mph N/A   Clear
10:09 AM 5.9 °F -11.2 °F -5.6 °F 59% 29.98 in 7.0 mi West 13.8 mph 23.0 mph N/A   Clear
10:29 AM 6.1 °F -10.9 °F -6.7 °F 56% 29.99 in 10.0 mi West 13.8 mph 20.7 mph N/A   Clear
10:49 AM 6.4 °F -13.3 °F -7.2 °F 54% 30.00 in 10.0 mi West 19.6 mph 25.3 mph N/A   Clear
11:09 AM 6.8 °F -10.0 °F -7.2 °F 53% 30.01 in 10.0 mi West 13.8 mph 18.4 mph N/A   Scattered Clouds
11:29 AM 6.6 °F -12.1 °F -6.5 °F 55% 30.02 in 7.0 mi West 17.3 mph 25.3 mph N/A   Mostly Cloudy
11:49 AM 6.3 °F -10.0 °F -6.2 °F 57% 30.02 in 10.0 mi West 12.7 mph 20.7 mph N/A   Overcast
12:09 PM 8.6 °F -7.0 °F -5.3 °F 53% 30.02 in 10.0 mi West 12.7 mph 18.4 mph N/A   Overcast
12:31 PM 9.3 °F -8.0 °F -6.2 °F 50% 30.01 in 10.0 mi West 16.1 mph 21.9 mph N/A   Overcast
12:52 PM 7.7 °F -8.9 °F -4.5 °F 57% 30.02 in 7.0 mi West 13.8 mph - N/A   Overcast
1:12 PM 7.0 °F -9.8 °F -1.1 °F 69% 30.01 in 2.5 mi West 13.8 mph 17.3 mph N/A   Haze
1:32 PM 7.0 °F -12.6 °F -0.9 °F 70% 30.02 in 2.0 mi West 19.6 mph 23.0 mph N/A Snow Light Snow
1:52 PM 6.8 °F -9.3 °F -2.2 °F 67% 30.02 in 2.0 mi West 12.7 mph 18.4 mph N/A   Haze
2:12 PM 7.9 °F -9.3 °F -4.7 °F 57% 30.03 in 4.0 mi West 15.0 mph 21.9 mph N/A   Haze
2:32 PM 6.8 °F -10.7 °F -3.1 °F 64% 30.03 in 3.0 mi West 15.0 mph 19.6 mph N/A Snow Light Snow
2:52 PM 6.8 °F -9.3 °F -4.0 °F 61% 30.04 in 2.5 mi WNW 12.7 mph 26.5 mph N/A Snow Light Snow
3:10 PM 6.1 °F -12.2 °F -4.7 °F 61% 30.05 in 4.0 mi West 16.1 mph 23.0 mph N/A   Haze
3:30 PM 6.4 °F -13.3 °F -7.2 °F 54% 30.06 in 10.0 mi West 19.6 mph 25.3 mph N/A   Overcast
3:50 PM 6.1 °F -12.8 °F -5.3 °F 60% 30.06 in 4.0 mi West 17.3 mph 24.2 mph N/A   Haze
4:10 PM 5.0 °F -13.6 °F -3.5 °F 68% 30.08 in 1.8 mi West 16.1 mph 23.0 mph N/A Snow Light Snow
4:30 PM 4.8 °F -13.8 °F -7.1 °F 58% 30.09 in 10.0 mi West 16.1 mph - N/A   Scattered Clouds
4:50 PM 3.7 °F -13.9 °F -7.4 °F 60% 30.10 in 7.0 mi West 13.8 mph 23.0 mph N/A Snow Light Snow
5:10 PM 3.0 °F -16.7 °F -8.9 °F 58% 30.11 in 10.0 mi West 17.3 mph - N/A   Scattered Clouds
5:30 PM 2.3 °F -13.4 °F -9.2 °F 59% 30.12 in 10.0 mi West 10.4 mph - N/A   Mostly Cloudy
5:50 PM 2.3 °F -12.4 °F -7.6 °F 63% 30.13 in 10.0 mi WNW 9.2 mph - N/A   Overcast
6:10 PM 1.0 °F -14.9 °F -9.4 °F 62% 30.14 in 10.0 mi West 10.4 mph - N/A   Scattered Clouds
6:28 PM 0.5 °F -15.6 °F -9.8 °F 62% 30.15 in 10.0 mi West 10.4 mph - N/A   Clear
6:48 PM 0.1 °F -15.1 °F -10.3 °F 61% 30.16 in 10.0 mi West 9.2 mph - N/A   Clear
7:08 PM -0.4 °F -14.7 °F -10.5 °F 62% 30.17 in 10.0 mi West 8.1 mph - N/A   Clear
7:28 PM -0.8 °F -15.1 °F -10.7 °F 63% 30.18 in 10.0 mi West 8.1 mph - N/A   Clear
7:48 PM -1.7 °F -13.5 °F -10.3 °F 67% 30.19 in 10.0 mi WSW 5.8 mph - N/A   Clear
8:08 PM -2.2 °F -12.5 °F -10.3 °F 68% 30.20 in 10.0 mi WSW 4.6 mph - N/A   Clear
8:28 PM -2.4 °F -15.8 °F -9.4 °F 72% 30.21 in 10.0 mi WSW 6.9 mph - N/A   Clear
8:48 PM -3.1 °F -17.9 °F -9.4 °F 74% 30.21 in 10.0 mi WSW 8.1 mph - N/A   Clear
9:11 PM -2.4 °F -17.1 °F -8.7 °F 75% 30.21 in 10.0 mi WSW 8.1 mph - N/A   Clear
9:31 PM -2.6 °F -16.0 °F -8.7 °F 75% 30.21 in 10.0 mi WSW 6.9 mph - N/A   Clear
9:51 PM -3.3 °F -16.9 °F -8.9 °F 77% 30.22 in 10.0 mi SW 6.9 mph - N/A   Clear
10:11 PM -3.5 °F -15.7 °F -8.7 °F 78% 30.22 in 10.0 mi SW 5.8 mph - N/A   Clear
10:31 PM -4.2 °F -16.5 °F -9.2 °F 79% 30.23 in 10.0 mi WSW 5.8 mph - N/A   Clear
10:51 PM -3.8 °F -16.1 °F -8.7 °F 80% 30.23 in 10.0 mi SW 5.8 mph - N/A   Clear
11:11 PM -4.4 °F -16.7 °F -8.7 °F 82% 30.24 in 10.0 mi SW 5.8 mph - N/A   Clear
11:31 PM -4.5 °F -18.4 °F -8.1 °F 84% 30.24 in 10.0 mi SW 6.9 mph - N/A   Clear
11:52 PM -4.7 °F -18.6 °F -8.3 °F 84% 30.23 in 10.0 mi WSW 6.9 mph - N/A   Clear